Regional Weather Roundup
Issued by NWS

Home | Current Version | Previous Version | Graphics & Text | Print | Product List | Glossary On
Versions: 1 2 3 4 5 6 7 8 9 10 11 12 13 14 15 16 17 18 19 20 21 22 23 24 25 26 27 28 29 30 31 32 33 34 35 36 37 38 39 40 41 42 43 44 45 46 47 48 49 50
000
ASUS43 KIND 240509
RWRIN

WEATHER ROUNDUP FOR INDIANA
NATIONAL WEATHER SERVICE INDIANAPOLIS IN
100 AM EDT FRI OCT 24 2014

NOTE: "FAIR" INDICATES FEW OR NO CLOUDS BELOW 12,000 FEET WITH NO
SIGNIFICANT WEATHER AND/OR OBSTRUCTIONS TO VISIBILITY.

* - STATION DOES NOT REPORT WEATHER SUCH AS PRECIPITATION OR FOG.

+ - STATION NOT QUALITY CONTROLLED BY THE NATIONAL WEATHER SERVICE.
    USE DATA WITH CAUTION...ESPECIALLY DEWPOINT AND RELATIVE
    HUMIDITY OBSERVATIONS.

INZ001>003-010>013-019-020-240600-
NORTHWEST INDIANA

CITY           SKY/WX    TMP DP  RH WIND       PRES   REMARKS
GARY /AIRPORT/ CLOUDY    55  42  60 S3        30.08F
KNOX *+        CLOUDY    47  41  80 CALM      30.09F
LA PORTE +     CLOUDY    51  43  73 S5        30.10S
MICHIGAN CITY+ CLOUDY    52  39  62 S7        30.09S
MONTICELLO +   CLOUDY    45  44  96 CALM      30.10F
RENSSELAER +   CLOUDY    50  45  81 CALM      30.10F
VALPARAISO     CLOUDY    50  42  74 SW3       30.09F

$$

LMZ046-743>745-240600-
SOUTHERN LAKE MICHIGAN

STATION/POSITION TIME  TEMP WIND        PRES
                       AIR  DIR/SP/G
                 (UTC) (F)  (DEG/KT/KT) (MB)
MICHIGAN CITY    0500   53  160/  9/ 12   N/A

$$

INZ004-005-014>016-021>024-240600-
NORTH CENTRAL INDIANA

CITY           SKY/WX    TMP DP  RH WIND       PRES   REMARKS
GOSHEN         PTCLDY    40  38  93 CALM      30.09F FOG
LOGANSPORT +   PTCLDY    41  37  87 CALM      30.11F
ROCHESTER +    MOCLDY    45  43  93 CALM      30.10F
SOUTH BEND     CLOUDY    49  42  77 S3        30.10F
WARSAW +       MOCLDY    37  37 100 CALM      30.10F FOG

$$

INZ006>009-017-018-025>027-240600-
NORTHEAST INDIANA

CITY           SKY/WX    TMP DP  RH WIND       PRES   REMARKS
ANGOLA *+      CLEAR     37  36  93 CALM      30.09F
AUBURN +       PTCLDY    39  36  87 CALM      30.11S
FORT WAYNE     MOCLDY    40  36  86 CALM      30.12S
HUNTINGTON +   PTCLDY    40  39  95 CALM      30.10F

$$

INZ028-029-035-036-043>045-051>053-240600-
WEST CENTRAL INDIANA

CITY           SKY/WX    TMP DP  RH WIND       PRES   REMARKS
GREENCASTLE +  PTCLDY    41  39  93 CALM      30.12R
LAFAYETTE      PTCLDY    42  40  92 CALM      30.11S
TERRE HAUTE    PTCLDY    45  42  89 CALM      30.11F

$$

INZ030>032-037>040-046>048-054>057-064-065-240600-
CENTRAL INDIANA

CITY           SKY/WX    TMP DP  RH WIND       PRES   REMARKS
CP ATTERBURY + CLOUDY    43  41  93 CALM      30.12S
FRANKFORT +    PTCLDY   N/A N/A N/A CALM      30.13S
INDIANAPOLIS   MOCLDY    47  39  74 W3        30.10S
-EAGLE CREEK   MOCLDY    44  40  85 CALM      30.10F
KOKOMO *+      MOCLDY    41  36  81 CALM      30.12S
MARION +       MOCLDY    41  37  87 CALM      30.11F
MT COMFORT *+  CLOUDY    41  39  93 CALM      30.12S
SHELBYVILLE    CLOUDY    43  39  86 E6        30.10F
ZIONSVILLE +   MOCLDY    42  38  87 CALM      30.12S

$$

INZ033-034-041-042-049-050-058-059-240600-
EAST CENTRAL INDIANA

CITY           SKY/WX    TMP DP  RH WIND       PRES   REMARKS
MUNCIE         MOCLDY    41  38  89 CALM      30.11F

$$

INZ060-061-067>069-081>083-085>088-240600-
SOUTHWEST INDIANA

CITY           SKY/WX    TMP DP  RH WIND       PRES   REMARKS
EVANSVILLE     PTCLDY    48  44  86 CALM      30.12F
HUNTINGBURG *+ CLOUDY    46  41  81 CALM      30.12F
WASHINGTON +   CLOUDY    45  45  99 CALM      30.11S

$$

INZ062-063-066-070>080-084-089>092-240600-
SOUTH CENTRAL AND SOUTHEAST INDIANA

CITY           SKY/WX    TMP DP  RH WIND       PRES   REMARKS
BLOOMINGTON    CLOUDY    43  41  93 CALM      30.11S

$$




USA.gov is the U.S. government's official web portal to all federal, state and local government web resources and services.